Tracking 35274 objects as of 11-Sep-2026
HD Live streaming from Space Station
objects crossing your sky now

SL-12 DEB


SL-12 DEB is no longer on orbit


NORAD ID: 29529
Int'l Code: 1989-039EC
Launch date: May 31, 1989
Source: Commonwealth of Independent States (former USSR) (CIS)
Launch site: TYURATAM MISSILE AND SPACE COMPLEX (TTMTR)
Decay date: 2007-06-14

Note: This is SATELLITE DEBRIS
Your satellite tracking list
Your tracking list is empty




NASA's NSSDC Master Catalog

Two Line Element Set (TLE):
1 29529U 89039EC  07101.65602265 +.00205403 +00000-0 +89984-1 0  9990
2 29529 065.9916 181.6892 5558585 050.8172 347.6377 04.65536983007726
Source of the keplerian elements: AFSPC